Location: *
(43.0833°N, 13.0500°E)
Time: 08:42:54
(UTC+00:00)

USA 229 DEB - Pass Details

Date: 15 November 2019
Orbit: 997 x 1215 km, 63.4° (Epoch: 02 December)

Event Time Altitude Azimuth Distance (km) Brightness Sun altitude
Rises 16:11:05 0° 200° (SSW) 3,708 7.2 -5.3°
Reaches altitude 10° 16:13:39 10° 196° (SSW) 2,774 6.4 -5.8°
Maximum altitude 16:20:01 58° 119° (ESE) 1,188 3.8 -6.9°
Drops below altitude 10° 16:26:40 10° 43° (NE) 2,902 5.5 -8.0°
Enters shadow 16:28:13 - 40° (NE) 3,458 5.9 -8.3°
